Overview Statistics Trail Chart Weather Telemetry Raw packets
 

This is the latest recevied weather packets stored in our database for station/object K0APR. If no packets are shown the sender has not sent any weather packets the latest 10 day(s).

<< 94 95 96 97 98 99 100 >>
Time Temp. Humidity Pressure Rain* Wind** Luminosity Snow
1787969047 23.89° C 77% 1013.7 hPa 0 mm - 0 W/m² -
1787968741 23.89° C 75% 1014 hPa 0 mm - 0 W/m² -
1787968440 23.89° C 73% 1014 hPa 0 mm - 0 W/m² -
1787968135 24.44° C 72% 1014 hPa 0 mm - 0 W/m² -
1787967845 24.44° C 72% 1014.7 hPa 0 mm - 0 W/m² -
1787967532 24.44° C 72% 1014.7 hPa 0 mm - 0 W/m² -
1787967228 24.44° C 71% 1014.4 hPa 0 mm - 0 W/m² -
1787966924 24.44° C 70% 1014.4 hPa 0 mm - 0 W/m² -
1787966620 25° C 70% 1014.7 hPa 0 mm - 0 W/m² -
1787966319 25° C 70% 1014.4 hPa 0 mm - 0 W/m² -
1787966014 25° C 70% 1014.7 hPa 0 mm - 0 W/m² -
1787965708 25° C 70% 1014.4 hPa 0 mm - 0 W/m² -
1787965408 25° C 69% 1014.4 hPa 0 mm - 0 W/m² -
1787965108 25.56° C 67% 1014.4 hPa 0 mm - 0 W/m² -
1787964803 25.56° C 66% 1014.4 hPa 0 mm - 0 W/m² -
1787964498 26.11° C 64% 1014 hPa 0 mm - 0 W/m² -
1787964194 26.11° C 63% 1014.4 hPa 0 mm - 0 W/m² -
1787963892 26.11° C 62% 1014.7 hPa 0 mm - 0 W/m² -
1787963587 26.67° C 62% 1014.7 hPa 0 mm - 2 W/m² -
1787963283 26.11° C 63% 1014.7 hPa 0 mm - 3 W/m² -
1787962982 26.11° C 65% 1014.7 hPa 0 mm - 3 W/m² -
1787962681 26.11° C 66% 1014.4 hPa 0 mm - 6 W/m² -
1787962376 26.11° C 66% 1014.4 hPa 0 mm - 12 W/m² -
1787962070 26.11° C 66% 1014.7 hPa 0 mm - 23 W/m² -
1787961770 26.67° C 66% 1014.7 hPa 0 mm - 30 W/m² -

* Rain latest hour (hover to see other rain measurements)
** Current wind speed in m/s (hover to see current wind gust speed)